Tracking 18840 objects as of 18-November-2017
HD Live streaming from Space Station
objects crossing your sky now

FENGYUN 1C DEB

Track FENGYUN 1C DEB now!
10-day predictions


NORAD ID: 38144
Int'l Code: 1999-025EQR
Perigee: 841.6 km
Apogee: 1,297.3 km
Inclination: 99.0 °
Period: 106.5 minutes
Semi major axis: 7440 km
RCS: 0.009 m2 (small)
Launch date: May 10, 1999
Source: People's Republic of China (PRC)
Launch site: Taiyaun Space Center, China (TSC)

Note: This is SATELLITE DEBRIS
aabbcc
Your satellite tracking list
Your tracking list is empty




NASA's NSSDC Master Catalog

Two Line Element Set (TLE):
1 38144U 99025EQR 17318.35415949  .00000449  00000-0  54683-3 0  9991
2 38144  99.0074 354.0909 0306231 190.6122 168.8455 13.52700683448915
Source of the keplerian elements: AFSPC